Time,TemperatureF,DewpointF,PressureIn,WindDirection,WindDirectionDegrees,WindSpeedMPH,WindSpeedGustMPH,Humidity,HourlyPrecipIn,Conditions,Clouds,dailyrainin,SolarRadiationWatts/m^2,SoftwareType,DateUTC
2013-04-25 00:03:00,42.0,37.0,-100.00,West,269,3.0,12.0,83,0.00,,,0.20,0.000000,,2013-04-25 04:03:00,
2013-04-25 00:13:00,42.0,37.0,-100.00,West,269,3.0,12.0,83,0.00,,,0.20,0.000000,,2013-04-25 04:13:00,
2013-04-25 00:43:00,41.0,35.0,-100.00,West,272,5.0,9.0,80,0.00,,,0.20,0.000000,,2013-04-25 04:43:00,
2013-04-25 00:52:00,41.0,35.0,-100.00,West,272,5.0,9.0,80,0.00,,,0.20,0.000000,,2013-04-25 04:52:00,
2013-04-25 01:03:00,41.0,35.0,-100.00,West,272,5.0,9.0,80,0.00,,,0.20,0.000000,,2013-04-25 05:03:00,
2013-04-25 01:12:00,41.0,35.0,-100.00,West,272,5.0,9.0,80,0.00,,,0.20,0.000000,,2013-04-25 05:12:00,
2013-04-25 01:42:00,40.0,34.0,-100.00,West,270,3.0,9.0,80,0.00,,,0.20,0.000000,,2013-04-25 05:42:00,
2013-04-25 01:52:00,40.0,34.0,-100.00,West,270,3.0,9.0,80,0.00,,,0.20,0.000000,,2013-04-25 05:52:00,
2013-04-25 02:02:00,40.0,34.0,-100.00,West,270,3.0,9.0,80,0.00,,,0.20,0.000000,,2013-04-25 06:02:00,
2013-04-25 02:12:00,40.0,34.0,-100.00,West,270,3.0,9.0,80,0.00,,,0.20,0.000000,,2013-04-25 06:12:00,
2013-04-25 02:42:00,39.0,34.0,-100.00,West,280,5.0,10.0,81,0.00,,,0.20,0.000000,,2013-04-25 06:42:00,
2013-04-25 02:52:00,39.0,34.0,-100.00,West,280,5.0,10.0,81,0.00,,,0.20,0.000000,,2013-04-25 06:52:00,
2013-04-25 03:02:00,39.0,34.0,-100.00,West,280,5.0,10.0,81,0.00,,,0.20,0.000000,,2013-04-25 07:02:00,
2013-04-25 03:12:00,39.0,34.0,-100.00,West,280,5.0,10.0,81,0.00,,,0.20,0.000000,,2013-04-25 07:12:00,
2013-04-25 03:42:00,39.0,33.0,-100.00,West,270,5.0,8.0,80,0.00,,,0.20,0.000000,,2013-04-25 07:42:00,
2013-04-25 03:53:00,39.0,33.0,-100.00,West,270,5.0,8.0,80,0.00,,,0.20,0.000000,,2013-04-25 07:53:00,
2013-04-25 04:02:00,39.0,33.0,-100.00,West,270,5.0,8.0,80,0.00,,,0.20,0.000000,,2013-04-25 08:02:00,
2013-04-25 04:11:00,39.0,33.0,-100.00,West,270,5.0,8.0,80,0.00,,,0.20,0.000000,,2013-04-25 08:11:00,
2013-04-25 04:42:00,36.0,31.0,-100.00,West,264,2.0,8.0,82,0.00,,,0.20,0.000000,,2013-04-25 08:42:00,
2013-04-25 04:52:00,36.0,31.0,-100.00,West,264,2.0,8.0,82,0.00,,,0.20,0.000000,,2013-04-25 08:52:00,
2013-04-25 05:01:00,36.0,31.0,-100.00,West,264,2.0,8.0,82,0.00,,,0.20,0.000000,,2013-04-25 09:01:00,
2013-04-25 05:11:00,36.0,31.0,-100.00,West,264,2.0,8.0,82,0.00,,,0.20,0.000000,,2013-04-25 09:11:00,
2013-04-25 05:42:00,32.0,29.0,-100.00,ENE,73,0.0,2.0,89,0.00,,,0.20,0.000000,,2013-04-25 09:42:00,
2013-04-25 05:53:00,32.0,29.0,-100.00,ENE,73,0.0,2.0,89,0.00,,,0.20,0.000000,,2013-04-25 09:53:00,
2013-04-25 06:03:00,32.0,29.0,-100.00,ENE,73,0.0,2.0,89,0.00,,,0.20,0.000000,,2013-04-25 10:03:00,
2013-04-25 06:12:00,32.0,29.0,-100.00,ENE,73,0.0,2.0,89,0.00,,,0.20,0.000000,,2013-04-25 10:12:00,
2013-04-25 06:42:00,32.0,30.0,-100.00,North,349,1.0,1.0,92,0.00,,,0.20,0.000000,,2013-04-25 10:42:00,
2013-04-25 06:53:00,32.0,30.0,-100.00,North,349,1.0,1.0,92,0.00,,,0.20,0.000000,,2013-04-25 10:53:00,
2013-04-25 07:02:00,32.0,30.0,-100.00,North,349,1.0,1.0,92,0.00,,,0.20,0.000000,,2013-04-25 11:02:00,
2013-04-25 07:12:00,32.0,30.0,-100.00,North,349,1.0,1.0,92,0.00,,,0.20,0.000000,,2013-04-25 11:12:00,
2013-04-25 07:42:00,34.0,32.0,-100.00,West,272,2.0,4.0,93,0.00,,,0.20,19.000000,,2013-04-25 11:42:00,
2013-04-25 07:52:00,34.0,32.0,-100.00,West,272,2.0,4.0,93,0.00,,,0.20,19.000000,,2013-04-25 11:52:00,
2013-04-25 08:01:00,34.0,32.0,-100.00,West,272,2.0,4.0,93,0.00,,,0.20,19.000000,,2013-04-25 12:01:00,
2013-04-25 08:12:00,34.0,32.0,-100.00,West,272,2.0,4.0,93,0.00,,,0.20,19.000000,,2013-04-25 12:12:00,
2013-04-25 08:42:00,38.0,37.0,-100.00,NW,325,1.0,4.0,95,0.00,,,0.20,71.000000,,2013-04-25 12:42:00,
2013-04-25 08:52:00,38.0,37.0,-100.00,NW,325,1.0,4.0,95,0.00,,,0.20,71.000000,,2013-04-25 12:52:00,
2013-04-25 09:02:00,38.0,37.0,-100.00,NW,325,1.0,4.0,95,0.00,,,0.20,71.000000,,2013-04-25 13:02:00,
2013-04-25 09:11:00,38.0,37.0,-100.00,NW,325,1.0,4.0,95,0.00,,,0.20,71.000000,,2013-04-25 13:11:00,
2013-04-25 09:42:00,44.0,37.0,-100.00,SE,137,4.0,7.0,75,0.00,,,-99.99,246.000000,,2013-04-25 13:42:00,
2013-04-25 09:53:00,44.0,37.0,-100.00,SE,137,4.0,7.0,75,0.00,,,-99.99,246.000000,,2013-04-25 13:53:00,
2013-04-25 10:02:00,44.0,37.0,-100.00,SE,137,4.0,7.0,75,0.00,,,-99.99,246.000000,,2013-04-25 14:02:00,
2013-04-25 10:11:00,44.0,37.0,-100.00,SE,137,4.0,7.0,75,0.00,,,-99.99,246.000000,,2013-04-25 14:11:00,
2013-04-25 10:42:00,45.0,28.0,-100.00,West,274,5.0,9.0,52,0.00,,,0.20,264.000000,,2013-04-25 14:42:00,
2013-04-25 10:52:00,45.0,28.0,-100.00,West,274,5.0,9.0,52,0.00,,,0.20,264.000000,,2013-04-25 14:52:00,
2013-04-25 11:02:00,45.0,28.0,-100.00,West,274,5.0,9.0,52,0.00,,,0.20,264.000000,,2013-04-25 15:02:00,
2013-04-25 11:11:00,45.0,28.0,-100.00,West,274,5.0,9.0,52,0.00,,,0.20,264.000000,,2013-04-25 15:11:00,
2013-04-25 11:42:00,47.0,30.0,-100.00,WNW,283,7.0,12.0,52,0.00,,,0.20,505.000000,,2013-04-25 15:42:00,
2013-04-25 11:53:00,47.0,30.0,-100.00,WNW,283,7.0,12.0,52,0.00,,,0.20,505.000000,,2013-04-25 15:53:00,
2013-04-25 12:02:00,47.0,30.0,-100.00,WNW,283,7.0,12.0,52,0.00,,,0.20,505.000000,,2013-04-25 16:02:00,
2013-04-25 12:13:00,47.0,30.0,-100.00,WNW,283,7.0,12.0,52,0.00,,,0.20,505.000000,,2013-04-25 16:13:00,
2013-04-25 12:43:00,50.0,30.0,-100.00,West,275,6.0,13.0,46,0.00,,,0.20,706.000000,,2013-04-25 16:43:00,
2013-04-25 12:53:00,50.0,30.0,-100.00,West,275,6.0,13.0,46,0.00,,,0.20,706.000000,,2013-04-25 16:53:00,
2013-04-25 13:02:00,50.0,30.0,-100.00,West,275,6.0,13.0,46,0.00,,,0.20,706.000000,,2013-04-25 17:02:00,
2013-04-25 13:11:00,50.0,30.0,-100.00,West,275,6.0,13.0,46,0.00,,,0.20,706.000000,,2013-04-25 17:11:00,
2013-04-25 13:42:00,53.0,31.0,-100.00,West,271,7.0,12.0,42,0.00,,,0.20,822.000000,,2013-04-25 17:42:00,
2013-04-25 13:53:00,53.0,31.0,-100.00,West,271,7.0,12.0,42,0.00,,,0.20,822.000000,,2013-04-25 17:53:00,
2013-04-25 14:02:00,53.0,31.0,-100.00,West,271,7.0,12.0,42,0.00,,,0.20,822.000000,,2013-04-25 18:02:00,
2013-04-25 14:11:00,53.0,31.0,-100.00,West,271,7.0,12.0,42,0.00,,,0.20,822.000000,,2013-04-25 18:11:00,
2013-04-25 14:43:00,55.0,30.0,-100.00,WSW,249,6.0,12.0,38,0.00,,,0.20,843.000000,,2013-04-25 18:43:00,
2013-04-25 14:53:00,55.0,30.0,-100.00,WSW,249,6.0,12.0,38,0.00,,,0.20,843.000000,,2013-04-25 18:53:00,
2013-04-25 15:02:00,55.0,30.0,-100.00,WSW,249,6.0,12.0,38,0.00,,,0.20,843.000000,,2013-04-25 19:02:00,
2013-04-25 15:12:00,55.0,30.0,-100.00,WSW,249,6.0,12.0,38,0.00,,,0.20,843.000000,,2013-04-25 19:12:00,
2013-04-25 15:42:00,57.0,27.0,-100.00,West,263,7.0,16.0,32,0.00,,,0.20,790.000000,,2013-04-25 19:42:00,
2013-04-25 15:52:00,57.0,27.0,-100.00,West,263,7.0,16.0,32,0.00,,,0.20,790.000000,,2013-04-25 19:52:00,
2013-04-25 16:02:00,57.0,27.0,-100.00,West,263,7.0,16.0,32,0.00,,,0.20,790.000000,,2013-04-25 20:02:00,
2013-04-25 16:11:00,57.0,27.0,-100.00,West,263,7.0,16.0,32,0.00,,,0.20,790.000000,,2013-04-25 20:11:00,
2013-04-25 16:43:00,59.0,26.0,-100.00,WNW,291,8.0,14.0,28,0.00,,,0.17,688.000000,,2013-04-25 20:43:00,
2013-04-25 16:52:00,59.0,26.0,-100.00,WNW,291,8.0,14.0,28,0.00,,,0.17,688.000000,,2013-04-25 20:52:00,
2013-04-25 17:01:00,59.0,26.0,-100.00,WNW,291,8.0,14.0,28,0.00,,,0.17,688.000000,,2013-04-25 21:01:00,
2013-04-25 17:11:00,59.0,26.0,-100.00,WNW,291,8.0,14.0,28,0.00,,,0.17,688.000000,,2013-04-25 21:11:00,
2013-04-25 17:42:00,60.0,25.0,-100.00,West,274,8.0,15.0,26,0.00,,,0.12,547.000000,,2013-04-25 21:42:00,
2013-04-25 17:53:00,60.0,25.0,-100.00,West,274,8.0,15.0,26,0.00,,,0.12,547.000000,,2013-04-25 21:53:00,
2013-04-25 18:03:00,60.0,25.0,-100.00,West,274,8.0,15.0,26,0.00,,,0.12,547.000000,,2013-04-25 22:03:00,
2013-04-25 18:12:00,60.0,25.0,-100.00,West,274,8.0,15.0,26,0.00,,,0.12,547.000000,,2013-04-25 22:12:00,
2013-04-25 18:42:00,60.0,23.0,-100.00,WNW,299,8.0,17.0,24,0.00,,,0.12,374.000000,,2013-04-25 22:42:00,
2013-04-25 18:53:00,60.0,23.0,-100.00,WNW,299,8.0,17.0,24,0.00,,,0.12,374.000000,,2013-04-25 22:53:00,
2013-04-25 19:02:00,60.0,23.0,-100.00,WNW,299,8.0,17.0,24,0.00,,,0.12,374.000000,,2013-04-25 23:02:00,
2013-04-25 19:12:00,60.0,23.0,-100.00,WNW,299,8.0,17.0,24,0.00,,,0.12,374.000000,,2013-04-25 23:12:00,
2013-04-25 19:42:00,57.0,22.0,-100.00,West,271,6.0,18.0,26,0.00,,,0.09,143.000000,,2013-04-25 23:42:00,
2013-04-25 19:52:00,57.0,22.0,-100.00,West,271,6.0,18.0,26,0.00,,,0.09,143.000000,,2013-04-25 23:52:00,
2013-04-25 20:01:00,57.0,22.0,-100.00,West,271,6.0,18.0,26,0.00,,,0.09,143.000000,,2013-04-26 00:01:00,
2013-04-25 20:11:00,57.0,22.0,-100.00,West,271,6.0,18.0,26,0.00,,,0.09,143.000000,,2013-04-26 00:11:00,
2013-04-25 20:42:00,54.0,22.0,-100.00,SW,217,2.0,11.0,29,0.00,,,0.06,39.000000,,2013-04-26 00:42:00,
2013-04-25 20:52:00,54.0,22.0,-100.00,SW,217,2.0,11.0,29,0.00,,,0.06,39.000000,,2013-04-26 00:52:00,
2013-04-25 21:01:00,54.0,22.0,-100.00,SW,217,2.0,11.0,29,0.00,,,0.06,39.000000,,2013-04-26 01:01:00,
2013-04-25 21:11:00,54.0,22.0,-100.00,SW,217,2.0,11.0,29,0.00,,,0.06,39.000000,,2013-04-26 01:11:00,
2013-04-25 21:42:00,44.0,32.0,-100.00,ESE,112,0.0,3.0,62,0.00,,,0.00,0.000000,,2013-04-26 01:42:00,
2013-04-25 21:52:00,44.0,32.0,-100.00,ESE,112,0.0,3.0,62,0.00,,,0.00,0.000000,,2013-04-26 01:52:00,
2013-04-25 22:02:00,44.0,32.0,-100.00,ESE,112,0.0,3.0,62,0.00,,,0.00,0.000000,,2013-04-26 02:02:00,
2013-04-25 22:12:00,44.0,32.0,-100.00,ESE,112,0.0,3.0,62,0.00,,,0.00,0.000000,,2013-04-26 02:12:00,
2013-04-25 22:42:00,42.0,33.0,-100.00,East,88,0.0,0.0,71,0.00,,,0.00,0.000000,,2013-04-26 02:42:00,
2013-04-25 22:52:00,42.0,33.0,-100.00,East,88,0.0,0.0,71,0.00,,,0.00,0.000000,,2013-04-26 02:52:00,
2013-04-25 23:01:00,42.0,33.0,-100.00,East,88,0.0,0.0,71,0.00,,,0.00,0.000000,,2013-04-26 03:01:00,
2013-04-25 23:11:00,42.0,33.0,-100.00,East,88,0.0,0.0,71,0.00,,,0.00,0.000000,,2013-04-26 03:11:00,
2013-04-25 23:43:00,39.0,30.0,-100.00,ESE,106,1.0,2.0,70,0.00,,,0.00,0.000000,,2013-04-26 03:43:00,
2013-04-25 23:53:00,39.0,30.0,-100.00,ESE,106,1.0,2.0,70,0.00,,,0.00,0.000000,,2013-04-26 03:53:00,